Location: Ellerstadt
(49.4644°N, 8.2615°E)
Time: 05:03:15
(UTC+00:00)

Cosmos 2218 Rocket - Pass Details

Date: 03 March 2021
Orbit: 955 x 1007 km, 82.9° (Epoch: 11 April)

Event Time Altitude Azimuth Distance (km) Brightness Sun altitude
Rises 18:48:21 0° 170° (S) 3,722 6.9 -16.2°
Reaches altitude 10° 18:50:56 10° 166° (SSE) 2,777 6.1 -16.6°
Maximum altitude 18:57:06 53° 91° (E) 1,226 4.1 -17.6°
Drops below altitude 10° 19:03:17 10° 17° (NNE) 2,788 6.3 -18.6°
Sets 19:05:52 0° 13° (NNE) 3,737 7.1 -19.0°
